TimeIST,TemperatureF,Dew PointF,Humidity,Sea Level PressureIn,VisibilityMPH,Wind Direction,Wind SpeedMPH,Gust SpeedMPH,PrecipitationIn,Events,Conditions,WindDirDegrees,DateUTC
12:10 AM,82.4,53.6,37,29.89,1.9,NE,9.2,-,N/A,,Smoke,40,2013-11-28 18:40:00
12:40 AM,82.4,50.0,32,29.89,1.9,East,12.7,-,N/A,,Smoke,80,2013-11-28 19:10:00
1:10 AM,82.4,50.0,32,29.86,1.9,East,10.4,-,N/A,,Smoke,80,2013-11-28 19:40:00
1:40 AM,80.6,50.0,34,29.86,1.9,East,6.9,-,N/A,,Smoke,90,2013-11-28 20:10:00
2:10 AM,80.6,50.0,34,29.86,1.9,ENE,6.9,-,N/A,,Smoke,70,2013-11-28 20:40:00
2:30 AM,76,52,33,29.87,1,Calm,Calm,,,,Smoke,,2013-11-28 21:00:00
2:40 AM,80.6,51.8,37,29.86,1.9,NE,5.8,-,N/A,,Smoke,50,2013-11-28 21:10:00
3:10 AM,78.8,51.8,39,29.86,1.9,East,3.5,-,N/A,,Smoke,80,2013-11-28 21:40:00
3:40 AM,77.0,51.8,41,29.86,1.9,NE,4.6,-,N/A,,Smoke,50,2013-11-28 22:10:00
4:10 AM,77.0,50.0,39,29.86,1.9,NE,5.8,-,N/A,,Smoke,50,2013-11-28 22:40:00
4:40 AM,77.0,50.0,39,29.86,1.9,NE,8.1,-,N/A,,Smoke,40,2013-11-28 23:10:00
5:10 AM,77.0,50.0,39,29.86,1.9,ENE,4.6,-,N/A,,Smoke,60,2013-11-28 23:40:00
5:30 AM,70,54,47,29.88,1,Calm,Calm,,,,Smoke,,2013-11-29 00:00:00
5:40 AM,75.2,51.8,44,29.86,1.9,Calm,Calm,-,N/A,,Smoke,0,2013-11-29 00:10:00
6:10 AM,73.4,53.6,50,29.89,1.9,Calm,Calm,-,N/A,,Smoke,0,2013-11-29 00:40:00
6:40 AM,73.4,51.8,47,29.89,1.9,Calm,Calm,-,N/A,,Smoke,0,2013-11-29 01:10:00
7:10 AM,71.6,51.8,50,29.89,1.6,Calm,Calm,-,N/A,,Smoke,0,2013-11-29 01:40:00
7:40 AM,73.4,51.8,47,29.92,1.3,Calm,Calm,-,N/A,,Smoke,0,2013-11-29 02:10:00
8:10 AM,75.2,55.4,50,29.92,1.3,Calm,Calm,-,N/A,,Smoke,0,2013-11-29 02:40:00
8:30 AM,72,56,47,29.94,1,NE,3.5,,,,Smoke,50,2013-11-29 03:00:00
9:10 AM,82.4,53.6,37,29.95,1.3,Calm,Calm,-,N/A,,Smoke,0,2013-11-29 03:40:00
9:40 AM,84.2,51.8,33,29.95,1.6,NNE,5.8,-,N/A,,Smoke,30,2013-11-29 04:10:00
10:10 AM,86.0,51.8,31,29.95,1.6,North,5.8,-,N/A,,Smoke,10,2013-11-29 04:40:00
10:40 AM,87.8,50.0,27,29.95,1.7,Calm,Calm,-,N/A,,Smoke,0,2013-11-29 05:10:00
11:30 AM,90,53,19,29.94,1,NE,4.6,,,,Smoke,50,2013-11-29 06:00:00
11:40 AM,89.6,48.2,24,29.92,1.9,East,3.5,-,N/A,,Smoke,90,2013-11-29 06:10:00
12:10 PM,89.6,48.2,24,29.92,1.9,NNE,5.8,-,N/A,,Smoke,20,2013-11-29 06:40:00
12:40 PM,89.6,50.0,26,29.89,1.9,NE,4.6,-,N/A,,Smoke,40,2013-11-29 07:10:00
1:10 PM,91.4,51.8,26,29.86,1.9,NNE,3.5,-,N/A,,Smoke,20,2013-11-29 07:40:00
1:40 PM,91.4,51.8,26,29.86,1.9,NNE,3.5,-,N/A,,Smoke,30,2013-11-29 08:10:00
2:10 PM,89.6,62.6,40,29.83,1.9,West,12.7,-,N/A,,Smoke,280,2013-11-29 08:40:00
2:30 PM,89,61,29,29.82,1,WNW,5.8,,,,Clear,290,2013-11-29 09:00:00
3:10 PM,89.6,60.8,38,29.80,1.7,WNW,11.5,-,N/A,,Smoke,300,2013-11-29 09:40:00
4:10 PM,87.8,60.8,40,29.83,2.2,NW,11.5,-,N/A,,Smoke,320,2013-11-29 10:40:00
5:10 PM,86.0,60.8,43,29.83,1.7,WNW,9.2,-,N/A,,Smoke,300,2013-11-29 11:40:00
5:30 PM,84,62,37,29.82,1,NW,6.9,,,,Smoke,320,2013-11-29 12:00:00
5:40 PM,86.0,59.0,40,29.83,1.7,NNW,5.8,-,N/A,,Smoke,330,2013-11-29 12:10:00
6:10 PM,84.2,60.8,45,29.83,1.3,NNW,8.1,-,N/A,,Smoke,340,2013-11-29 12:40:00
6:40 PM,84.2,62.6,48,29.86,1.6,NNW,8.1,-,N/A,,Smoke,340,2013-11-29 13:10:00
7:10 PM,84.2,62.6,48,29.86,1.6,NNW,6.9,-,N/A,,Smoke,330,2013-11-29 13:40:00
7:40 PM,84.2,62.6,48,29.86,1.6,NNW,5.8,-,N/A,,Smoke,340,2013-11-29 14:10:00
8:10 PM,82.4,62.6,51,29.89,1.6,NNW,4.6,-,N/A,,Smoke,340,2013-11-29 14:40:00
8:30 PM,81,64,46,29.89,1,West,3.5,,,,Smoke,270,2013-11-29 15:00:00
8:40 PM,82.4,62.6,51,29.89,1.6,NE,5.8,-,N/A,,Smoke,50,2013-11-29 15:10:00
9:10 PM,84.2,62.6,48,29.89,1.6,SSW,8.1,-,N/A,,Smoke,210,2013-11-29 15:40:00
9:40 PM,84.2,62.6,48,29.89,1.6,NE,6.9,-,N/A,,Smoke,40,2013-11-29 16:10:00
10:10 PM,82.4,62.6,51,29.89,1.6,NE,4.6,-,N/A,,Smoke,40,2013-11-29 16:40:00
10:40 PM,84.2,62.6,48,29.89,1.6,North,4.6,-,N/A,,Smoke,10,2013-11-29 17:10:00
11:10 PM,82.4,60.8,48,29.89,1.6,South,4.6,-,N/A,,Smoke,180,2013-11-29 17:40:00
11:30 PM,74,67,72,29.90,1,Calm,Calm,,,,Haze,,2013-11-29 18:00:00
11:40 PM,82.4,60.8,48,29.89,1.6,ESE,5.8,-,N/A,,Smoke,120,2013-11-29 18:10:00